Погода в Астаре

Погода в Астаре : погода сейчас, прогноз погоды и архив. Всё, что Вы хотите узнать о погоде в Астаре!

Поиск расширенной информации на нашем сайте:

Другие новости

Новости СМИ2

Главная страница сайта

Новости сайта

02.10.2013

Напоминаем, что на нашем новом сайте вы можете получить высокодетализированные прогнозы погоды по пунктам России, СНГ и мира (включающие важные для авиации метеовеличины, такие как направление и скорость ветра, видимость, явления погоды, количество и форма облачности, нижняя и верхняя граница облачности), а также ознакомиться с разнообразными материалами по авиационной метеорологии и подборкой полезных ссылок на эту тему.

Сайт Метеоцентр.Азия посвящён разработке технологий оптимизации авиаметеорологического обслуживания, включая проектирование и перспективное создание нескольких автоматизированных авиаметеорологических систем:
- система выпуска высокодетальных прогностических карт явлений погоды для нижнего воздушного пространства по России и ближнему зарубежью;
- система верификации прогнозов TAF (выпускаемых синоптиками официальных АМСГ РФ и ближнего зарубежья) и AUTOTAF (выпускаемых сайтом Метеоцентр.Азия) - выявление ошибок, онлайн-сопоставление с фактической погодой METAR, автоматическое внесение коррективов в прогнозы при резком отклонении фактической погоды от прогноза, подсчёт оправдываемости прогнозов по элементам и в целом;
- система обработки, анализа и отображения авиаметеорологической информации для применения провайдерами метеорологической информации.

Рекомендуем: Заправка картриджей Молодежная для Samsung.

Погода в Астаре - сегодня

Время (UTC), дата Ветер
(°,м/с) 
Видим.   Явления Облачность Т
(°С)
Тd
(°С)
f(%) Тe
(°С)
Pmin
(гПа)
dP
(гПа)
Po
(мм)
O2
(г/м3)
Тmin Tmax R s Состояние
почвы
15 24.04.17 060 (СВ) 20000 м    4/4 600 м 
[Cu hum]
+14.3 +9.9 75 +15  1016.8  1.7  765  291         
18 24.04.17 270 (З) 4000 м    6/6 600 м 
[Sc]
+12.4 +7.7 73 +14  1019.7  767  294    +18.8       
21 24.04.17 260 (З) 4000 м    8/8 600 м 
[Sc]
+12.2 +7.8 74 +13  1018.8  -0.9  766  294           
00 25.04.17 260 (З) 4000 м    ясно 
+10.1 +7.9 86 +10  1018.7  -0.1  766  296           
03 25.04.17 290 (З) 20000 м    3/3 600 м 
[Cu hum]
+9.5 +7.1 85 +10  1020  1.3  767  298           
06 25.04.17 110 (В) 20000 м    6/0 средняя 
[Ac trans]
+16 +6 51 +17  1022.1  769  292           
09 25.04.17 130 (ЮВ) 20000 м    10/0 средняя 
[Ac trans]
+16 +5.3 49 +17  1023.5  1.5  770  292           
12 25.04.17 080 (В) 10 км    10/10 600 м кучево-дожд. 
[Cb cap]
+13.7 +9.5 76 +13  1024.9  1.4  771  294           
15 25.04.17 090 (В) 10 км    10/10 600 м 
[Sc]
+11.7 +8.8 82 +11  1027.4  2.5  773  297           
18 25.04.17 120 (ЮВ) 4000 м  слаб. ливневой дождь  10/10 600 м кучево-дожд. 
[Cb cap]
+10.6 +8.5 87 +10  1030.5  3.1  775  299    +16.5       
21 25.04.17 060 (СВ) 4000 м  слаб. ливневой дождь  10/10 600 м кучево-дожд. 
[Cb cap]
+10.2 +7.7 84 +10  1031.9  1.4  776  300           
00 26.04.17 270 (З) 4000 м    10/10 600 м 
[Sc]
+9.5 +7.5 87 +10  1032.8  0.9  777  301           
03 26.04.17 280 (З) 20000 м    10/10 600 м 
[Sc]
+9.7 +5.4 75 +10  1034.5  1.7  778  302      0.4     
06 26.04.17 280 (З) 20000 м    10/10 600 м 
[Sc]
+10.9 +5.7 70 +11  1035.8  1.3  779  301           
09 26.04.17 130 (ЮВ) 20000 м    10/10 600 м 
[Sc]
+13.5 +3.3 50 +14  1035.8  779  299           
12 26.04.17 080 (В) 20000 м    10/10 600 м 
[Sc]
+14 +3.6 49 +15  1034.5  -1.3  778  298           
15 26.04.17 110 (В) 20000 м    10/10 600 м 
[Sc]
+12.6 +4.1 56 +13  1034  -0.5  778  299           
18 26.04.17 270 (З) 4000 м    10/10 600 м 
[Sc]
+11.5 +7.1 74 +13  1034.4  0.4  778  300    +14.6       
21 26.04.17 300 (СЗ) 4000 м    10/10 600 м 
[Sc]
+10.5 +5.7 72 +12  1033.8  -0.6  777  301           
00 27.04.17 280 (З) 4000 м    10/10 600 м 
[Sc]
+9.9 +5.2 73 +11  1033.1  -0.7  777  301           
03 27.04.17 270 (З) 20000 м    10/10 600 м 
[Sc]
+9.9 +4.9 71 +11  1033  -0.1  777  301           
06 27.04.17 130 (ЮВ) 20000 м    9/9 600 м 
[Sc]
+13.3 +6.1 62 +15  1034.1  1.1  778  298           
09 27.04.17 130 (ЮВ) 20000 м    10/10 600 м 
[Sc]
+13.5 +7.5 67 +14  1033.1  -1  777  297           
12 27.04.17 130 (ЮВ) 20000 м    10/10 600 м 
[Sc]
+13.7 +7 64 +14  1031.6  -1.5  776  297           
15 27.04.17 190 (Ю) 20000 м    8/8 600 м средняя 
[Cu hum|Ac trans]
+13.1 +6.9 66 +14  1030.7  -0.9  775  297           
Время (UTC), дата Ветер
(°,м/с) 
Видим.   Явления Облачность Т
(°С)
Тd
(°С)
f(%) Тe
(°С)
Pmin
(гПа)
dP
(гПа)
Po
(мм)
O2
(г/м3)
Тmin Tmax R s Состояние
почвы

Для получения пояснительной информации подведите курсор к названию столбца.

ПОГОДА в Астаре - архив

Всё, что Вы хотите узнать о погоде в Астаре - удобно и подробно!

Выберите нужную дату (начиная с 1 января 2015* года) и нажмите кнопку "Найти".
Будут отображены архивные сводки погоды по пункту Астара, начиная с указанной даты.


Отображать данные в формате CSV (для использования в таблицах Excel)


Внимание! Наш архив погоды предназначен исключительно для личного некоммерческого использования в познавательных целях. Если Вам необходимы официальные справки о состоянии погоды (для производственных, юридических, коммерческих и т.п. целей), обращайтесь в органы Росгидромета.

*Примечание: данная дата относится к архиву по метеостанциям СССР (Россия, СНГ, Балтия).
Архив по метеостанциям Зарубежной Европы и Азии (кроме Китая) хранится 10 дней, по другим регионам земного шара (Китай, Африка, Америка, Австралия, Океания) - 1 день.

Астара - район местоположения метеостанции


Название, широта, долгота, высота метеостанции:
Астара 38.4°ш. 48.9°д. -22 м над ур. моря [Азербайджан]

Дополнительная информация

В oтличие oт бoльшинства пoгoдных сайтoв мы публикуем пoдрoбную метеoинфoрмацию в детальнoм прoфессиoнальнoм фoрмате.

Характеристики температуры и влажнoсти вoздуха измеряются на высoте 2 м в тени вдали oт зданий и деревьев.
Скoрoсть ветра измеряется на высoте 10 м (на урoвне рoста челoвека скoрoсть ветра ниже в 1.5-2 раза). Если метеoстанция нахoдится в гoрoде или в лесу, тo скoрoсть ветра занижена на 2-4 м/с пo сравнению с oткрытым местoм. Скoрoсть ветра над акватoриями крупных рек и oзёр, а также на вершинах хoлмoв на 2-5 м/с выше, чем в oбычных услoвиях.
Атмoсфернoе давление в разных тoчках местнoсти мoжет значительнo oтличаться oт давления на метеoстанции, в зависимoсти oт услoвий рельефа (при пoдъёме на 10 м давление пoнижается примернo на 1 мм рт.ст.).